Cheraw, SC

7:55 AM EDT on June 27, 2017 (GMT -0400)
Cheraw

Weather History for KCQW - May, 2014

Change the Weather History Date:

Sunday, May 4, 2014

  Actual Average (KFLO) Record (KFLO)
Temperature  
Mean Temperature 65 °F -  
Max Temperature 84 °F 78 °F 91 °F (1981)
Min Temperature 46 °F 54 °F 38 °F (1971)
Growing Degree Days 15 (Base 50)    
Moisture  
Dew Point 45 °F    
Average Humidity 49    
Maximum Humidity 100    
Minimum Humidity 22    
Precipitation  
Precipitation 0.00 in - - ()
Sea Level Pressure  
Sea Level Pressure 29.95 in    
Wind  
Wind Speed - (North)    
Max Wind Speed -    
Max Gust Speed -    
Averages and records for this station are not official NWS values.
T = Trace of Precipitation, MM = Missing Value Source: NWS Daily Summary

Daily Weather History Graph

Daily Weather History Graph

Search for Another Location

Airport or City:

Trip Planner

Search our weather history database for the weather conditions in past years. The results will help you decide how hot, cold, wet, or windy it might be!

Date:

Astronomy

May. 04, 2014 Rise Set
Actual Time 6:26 AM EDT 8:07 PM EDT
Civil Twilight 5:59 AM EDT 8:34 PM EDT
Nautical Twilight 5:26 AM EDT 9:07 PM EDT
Astronomical Twilight 4:52 AM EDT 9:41 PM EDT
Moon 10:49 AM EDT (5/4) 12:10 AM EDT (5/4)
Length of Visible Light 14h 35m
Length of Day
13h 40m
Waxing Crescent, 27% of the Moon is Illuminated
May 4
Waxing Crescent
May 6
First Quarter
May 14
Full
May 21
Last Quarter
May 28
New

Hourly Weather History & Observations

Time (EDT) Temp. Dew Point Humidity Pressure Visibility Wind Dir Wind Speed Gust Speed Precip Events Conditions
12:15 AM 59.0 °F 42.8 °F 55% 29.96 in - North - - N/A   Clear
12:35 AM 57.2 °F 44.6 °F 63% 29.97 in - North - - N/A   Clear
12:55 AM 57.2 °F 44.6 °F 63% 29.97 in - North - - N/A   Clear
1:15 AM 57.2 °F 44.6 °F 63% 29.97 in - North - - N/A   Clear
1:35 AM 55.4 °F 44.6 °F 67% 29.97 in - North - - N/A   Clear
1:55 AM 55.4 °F 44.6 °F 67% 29.97 in - North - - N/A   Clear
2:15 AM 53.6 °F 44.6 °F 72% 29.96 in - North - - N/A   Clear
2:35 AM 55.4 °F 44.6 °F 67% 29.96 in - North - - N/A   Clear
2:55 AM 53.6 °F 44.6 °F 72% 29.96 in - North - - N/A   Clear
3:15 AM 53.6 °F 44.6 °F 72% 29.96 in - North - - N/A   Clear
3:35 AM 53.6 °F 44.6 °F 72% 29.96 in - North - - N/A   Clear
3:55 AM 51.8 °F 46.4 °F 82% 29.97 in - North - - N/A   Clear
4:15 AM 48.2 °F 46.4 °F 93% 29.97 in - North - - N/A   Unknown
4:35 AM 48.2 °F 46.4 °F 93% 29.97 in - North - - N/A   Unknown
4:55 AM 48.2 °F 46.4 °F 93% 29.97 in - North - - N/A   Unknown
5:15 AM 48.2 °F 44.6 °F 87% 29.98 in - North - - N/A   Unknown
5:55 AM 48.2 °F 46.4 °F 93% 29.98 in - North - - N/A   Unknown
6:15 AM 46.4 °F 44.6 °F 93% 29.99 in - North - - N/A   Unknown
6:35 AM 46.4 °F 46.4 °F 100% 30.00 in - North - - N/A   Unknown
6:55 AM 46.4 °F 46.4 °F 100% 30.00 in - North - - N/A   Unknown
7:15 AM 48.2 °F 46.4 °F 93% 30.01 in - North - - N/A   Unknown
7:35 AM 53.6 °F 48.2 °F 82% 30.02 in - North - - N/A   Unknown
7:55 AM 55.4 °F 48.2 °F 77% 30.02 in - North - - N/A   Clear
8:15 AM 59.0 °F 48.2 °F 67% 30.02 in - North - - N/A   Clear
8:35 AM 60.8 °F 48.2 °F 63% 30.02 in - North - - N/A   Clear
8:55 AM 64.4 °F 50.0 °F 59% 30.02 in - North - - N/A   Clear
9:15 AM 66.2 °F 48.2 °F 52% 30.03 in - North - - N/A   Clear
9:55 AM 71.6 °F 48.2 °F 43% 30.03 in - North - - N/A   Clear
10:15 AM 73.4 °F 48.2 °F 41% 30.03 in - North - - N/A   Clear
10:35 AM 73.4 °F 46.4 °F 38% 30.03 in - North - - N/A   Clear
10:55 AM 75.2 °F 42.8 °F 31% 30.03 in - North - - N/A   Clear
11:15 AM 75.2 °F 41.0 °F 29% 30.03 in - North - - N/A   Clear
11:35 AM 77.0 °F 44.6 °F 32% 30.02 in - North - - N/A   Clear
11:55 AM 77.0 °F 42.8 °F 29% 30.02 in - North - - N/A   Clear
12:15 PM 78.8 °F 41.0 °F 26% 30.01 in - North - - N/A   Clear
12:35 PM 78.8 °F 41.0 °F 26% 30.00 in - North - - N/A   Clear
12:55 PM 80.6 °F 41.0 °F 24% 29.99 in - North - - N/A   Clear
1:15 PM 80.6 °F 41.0 °F 24% 29.98 in - North - - N/A   Clear
1:35 PM 80.6 °F 41.0 °F 24% 29.97 in - North - - N/A   Clear
1:55 PM 82.4 °F 41.0 °F 23% 29.96 in - North - - N/A   Clear
2:15 PM 82.4 °F 41.0 °F 23% 29.95 in - North - - N/A   Clear
2:35 PM 82.4 °F 41.0 °F 23% 29.94 in - North - - N/A   Clear
2:55 PM 82.4 °F 41.0 °F 23% 29.93 in - North - - N/A   Clear
3:15 PM 84.2 °F 41.0 °F 22% 29.92 in - North - - N/A   Clear
3:35 PM 84.2 °F 41.0 °F 22% 29.92 in - North - - N/A   Clear
3:55 PM 84.2 °F 41.0 °F 22% 29.91 in - North - - N/A   Clear
4:15 PM 84.2 °F 42.8 °F 23% 29.90 in - North - - N/A   Clear
4:35 PM 84.2 °F 44.6 °F 25% 29.90 in - North - - N/A   Clear
4:55 PM 84.2 °F 44.6 °F 25% 29.89 in - North - - N/A   Clear
5:15 PM 84.2 °F 44.6 °F 25% 29.89 in - North - - N/A   Clear
5:35 PM 84.2 °F 42.8 °F 23% 29.88 in - North - - N/A   Clear
5:55 PM 84.2 °F 42.8 °F 23% 29.88 in - North - - N/A   Clear
6:15 PM 84.2 °F 44.6 °F 25% 29.87 in - North - - N/A   Clear
6:35 PM 82.4 °F 44.6 °F 26% 29.87 in - North - - N/A   Clear
6:55 PM 82.4 °F 44.6 °F 26% 29.87 in - North - - N/A   Clear
7:15 PM 80.6 °F 44.6 °F 28% 29.87 in - North - - N/A   Clear
7:35 PM 78.8 °F 46.4 °F 32% 29.87 in - North - - N/A   Clear
7:55 PM 77.0 °F 46.4 °F 34% 29.88 in - North - - N/A   Clear
8:15 PM 75.2 °F 46.4 °F 36% 29.88 in - North - - N/A   Clear
8:35 PM 73.4 °F 48.2 °F 41% 29.89 in - North - - N/A   Clear
8:55 PM 73.4 °F 46.4 °F 38% 29.89 in - North - - N/A   Clear
9:15 PM 71.6 °F 48.2 °F 43% 29.90 in - North - - N/A   Clear
9:35 PM 71.6 °F 48.2 °F 43% 29.91 in - North - - N/A   Clear
9:55 PM 69.8 °F 48.2 °F 46% 29.91 in - North - - N/A   Clear
10:15 PM 66.2 °F 50.0 °F 56% 29.92 in - North - - N/A   Clear
10:35 PM 68.0 °F 50.0 °F 52% 29.92 in - North - - N/A   Clear
10:55 PM 68.0 °F 48.2 °F 49% 29.92 in - North - - N/A   Clear
11:15 PM 68.0 °F 48.2 °F 49% 29.92 in - North - - N/A   Clear
11:35 PM 68.0 °F 48.2 °F 49% 29.92 in - North - - N/A   Clear
11:55 PM 68.0 °F 48.2 °F 49% 29.92 in - North - - N/A   Clear